Location: Unspecified
(25.7579°N, 0.0000°E)
Time: 04:49:03
(UTC+00:00)

Resurs 1-4 - Visible Passes

Search period start: 04 April 2026 00:00
Search period end: 14 April 2026 00:00
Orbit: 807 x 809 km, 98.9° (Epoch: 29 March)

Date Brightness Start Highest point End Pass type
(mag) Time Alt. Az. Time Alt. Az. Time Alt. Az.
4 Apr 7.9 02:29:16 10° ENE 02:30:38 11° E 02:30:38 11° E visible
4 Apr 5.1 04:05:33 10° N 04:10:44 58° WNW 04:11:45 49° WSW visible
5 Apr 5.1 03:41:14 10° NNE 03:46:32 78° ESE 03:47:20 63° SSE visible
6 Apr 6.1 03:17:17 10° NNE 03:22:17 42° E 03:22:55 40° ESE visible
6 Apr 6.6 04:58:23 10° NNW 05:01:40 17° WNW 05:04:02 13° W visible
7 Apr 7.0 02:53:50 10° NE 02:57:57 23° E 02:58:30 22° ESE visible
7 Apr 5.9 04:33:05 10° NNW 04:37:38 30° WNW 04:39:37 23° WSW visible
8 Apr 7.8 02:31:38 10° ENE 02:33:34 12° E 02:34:05 12° E visible
8 Apr 5.2 04:08:22 10° N 04:13:31 55° WNW 04:15:12 39° SW visible
9 Apr 5.1 03:44:01 10° NNE 03:49:20 82° ESE 03:50:46 50° S visible
10 Apr 6.0 03:20:03 10° NNE 03:25:05 44° E 03:26:20 37° SE visible
10 Apr 6.7 05:01:20 10° NNW 05:04:26 16° WNW 05:07:27 10° WSW visible
11 Apr 7.0 02:56:32 10° NE 03:00:45 24° E 03:01:55 22° ESE visible
11 Apr 6.0 04:35:57 10° NNW 04:40:25 28° WNW 04:43:02 19° WSW visible
12 Apr 7.7 02:34:06 10° ENE 02:36:22 13° E 02:37:29 12° ESE visible
12 Apr 5.3 04:11:11 10° N 04:16:18 51° WNW 04:18:36 30° SW visible
13 Apr 5.0 03:46:48 10° NNE 03:52:07 86° ESE 03:54:09 39° S visible
